This is the latest recevied weather packets stored in our database for station/object N3FAA. If no packets are shown the sender has not sent any weather packets the latest 10 day(s).
| Time | Temp. | Humidity | Pressure | Rain* | Wind** | Luminosity | Snow |
|---|---|---|---|---|---|---|---|
| 1777471696 | 10° C | 74% | 1015.6 hPa | 0 mm | - | 61 W/m² | - |
| 1777471393 | 10° C | 74% | 1015.4 hPa | 0 mm | - | 55 W/m² | - |
| 1777471090 | 9.44° C | 75% | 1015.5 hPa | 0 mm | - | 48 W/m² | - |
| 1777470786 | 8.89° C | 76% | 1015.6 hPa | 0 mm | - | 44 W/m² | - |
| 1777470483 | 8.33° C | 78% | 1015.5 hPa | 0 mm | - | 39 W/m² | - |
| 1777470179 | 7.78° C | 79% | 1015.5 hPa | 0 mm | - | 33 W/m² | - |
| 1777469875 | 7.78° C | 79% | 1015.3 hPa | 0 mm | - | 29 W/m² | - |
| 1777469571 | 7.78° C | 79% | 1015.6 hPa | 0 mm | - | 24 W/m² | - |
| 1777469266 | 7.22° C | 80% | 1015.4 hPa | 0 mm | - | 19 W/m² | - |
| 1777468962 | 7.22° C | 80% | 1015.4 hPa | 0 mm | - | 14 W/m² | - |
| 1777468657 | 7.22° C | 81% | 1015.4 hPa | 0 mm | - | 10 W/m² | - |
| 1777468354 | 6.67° C | 82% | 1015.4 hPa | 0 mm | - | 6 W/m² | - |
| 1777468050 | 6.67° C | 82% | 1015.4 hPa | 0 mm | - | 3 W/m² | - |
| 1777467746 | 6.11° C | 82% | 1015.4 hPa | 0 mm | - | 2 W/m² | - |
| 1777467441 | 5.56° C | 81% | 1015.3 hPa | 0 mm | - | 0 W/m² | - |
| 1777467137 | 7.22° C | 78% | 1015.2 hPa | 0 mm | - | 0 W/m² | - |
| 1777466835 | 7.78° C | 78% | 1015.5 hPa | 0 mm | - | 0 W/m² | - |
| 1777466533 | 7.78° C | 78% | 1015.1 hPa | 0 mm | - | 0 W/m² | - |
| 1777466229 | 8.33° C | 77% | 1014.9 hPa | 0 mm | - | 0 W/m² | - |
| 1777465925 | 8.33° C | 76% | 1015.1 hPa | 0 mm | - | 0 W/m² | - |
| 1777465621 | 8.33° C | 76% | 1015 hPa | 0 mm | - | 0 W/m² | - |
| 1777465316 | 7.78° C | 76% | 1014.9 hPa | 0 mm | - | 0 W/m² | - |
| 1777465010 | 8.33° C | 76% | 1015 hPa | 0 mm | - | 0 W/m² | - |
| 1777464706 | 7.78° C | 76% | 1014.9 hPa | 0 mm | - | 0 W/m² | - |
| 1777464403 | 8.33° C | 75% | 1014.8 hPa | 0 mm | - | 0 W/m² | - |
* Rain latest hour (hover to see other rain measurements)
** Current wind speed in m/s (hover to see current wind gust speed)